This demonstration page uses our WeatherBlox Daily Observations layout. Learn more.

Left ArrowRight Arrow

39.95238, -75.16362

Hourly Observations for September 29, 2019

Temp ( °F °C ) Dew Point ( °F °C ) Humidity (%) Winds ( mph kmh ) Pressure ( in mb ) Visibility ( mi km ) Precip ( " mm )
12:54 am 00:54 Mostly Cloudy 73 22.8 70 21.1 90 90 Calm 30.09 1019 10 16 0.00 0.00
1:54 am 01:54 Mostly Cloudy 73 22.8 71 21.7 94 94 WSW 7 11 30.10 1019 8 13 0.00 0.00
2:54 am 02:54 Partly Cloudy 73 22.8 71 21.7 94 94 NW 3 6 30.10 1019 9 14 0.00 0.00
3:38 am 03:38 Mostly Clear with Mist and Fog 72 22.2 70 21.1 94 94 Calm 30.11 1020 6 10 0.00 0.00
3:54 am 03:54 Mostly Clear with Mist and Fog 72 22.2 70 21.1 94 94 NNW 6 9 30.11 1020 5 8 0.00 0.00
4:15 am 04:15 Mostly Clear 71 21.7 69 20.6 94 94 N 6 9 30.12 1020 7 11 0.00 0.00
4:51 am 04:51 Mostly Clear 70 21 66 19 88 88 N 6 9 30.13 1020 10 16 0.00 0.00
4:54 am 04:54 Mostly Clear 70 21.1 67 19.4 90 90 N 7 11 30.13 1020 10 16 0.00 0.00
5:54 am 05:54 Mostly Clear 70 21.1 66 18.9 87 87 N 8 13 30.15 1021 10 16 0.00 0.00
6:54 am 06:54 Mostly Clear 70 21.1 66 18.9 87 87 NNE 9 15 30.16 1021 10 16 0.00 0.00
7:54 am 07:54 Mostly Sunny 71 21.7 64 17.8 79 79 N 9 15 30.18 1022 10 16 0.00 0.00
8:54 am 08:54 Mostly Sunny 73 22.8 64 17.8 74 74 NNE 12 19 30.22 1023 10 16 0.00 0.00
9:54 am 09:54 Mostly Sunny 75 23.9 62 16.7 64 64 NNE 17 28 30.24 1024 10 16 0.00 0.00
10:54 am 10:54 Mostly Sunny 78 25.6 62 16.7 58 58 N 14 22 30.25 1024 10 16 0.00 0.00
11:54 am 11:54 Partly Cloudy 80 26.7 61 16.1 52 52 NNE 13 20 30.24 1024 10 16 0.00 0.00
12:54 pm 12:54 Partly Cloudy 80 26.7 61 16.1 52 52 N 9 15 30.23 1024 10 16 0.00 0.00
1:54 pm 13:54 Mostly Cloudy 80 26.7 60 15.6 51 51 Calm 30.21 1023 10 16 0.00 0.00
2:54 pm 14:54 Mostly Cloudy 81 27.2 60 15.6 49 49 NNE 7 11 30.21 1023 10 16 0.00 0.00
3:54 pm 15:54 Mostly Cloudy 80 26.7 62 16.7 54 54 E 9 15 30.21 1023 10 16 0.00 0.00
4:54 pm 16:54 Mostly Cloudy 80 26.7 62 16.7 54 54 E 12 19 30.20 1023 10 16 0.00 0.00
5:54 pm 17:54 Mostly Cloudy 77 25 62 16.7 60 60 E 7 11 30.22 1023 10 16 0.00 0.00
6:54 pm 18:54 Mostly Cloudy 74 23.3 63 17.2 69 69 Calm 30.23 1024 10 16 0.00 0.00
7:54 pm 19:54 Mostly Cloudy 74 23.3 62 16.7 67 67 E 5 7 30.23 1024 10 16 0.00 0.00
8:54 pm 20:54 Mostly Cloudy 72 22.2 62 16.7 71 71 ESE 6 9 30.25 1024 10 16 0.00 0.00
9:54 pm 21:54 Cloudy 70 21.1 59 15 68 68 E 6 9 30.27 1025 10 16 0.00 0.00
10:54 pm 22:54 Cloudy 69 20.6 60 15.6 73 73 ENE 3 6 30.27 1025 10 16 0.00 0.00
11:54 pm 23:54 Cloudy 69 20.6 60 15.6 73 73 Calm 30.29 1026 10 16 0.00 0.00

Powered by AerisWeather